When you browse on this site, cookies collect data to enhance your experience and personalize the content and advertising you see.
Visit our Privacy Policy to learn more. By continuing to use the site, you agree to this use of cookies and data.
  • In Hungary
  • List of Countries
  • For 7 days
  • Water Temperature
  • Weather Map
  • News
  • Weather Widgets
  • user-avatar
    Login

    Hourly Weather Tabunnyy

    Today, 24 October, Thursday

    Time Temperature Precipitation Wind Pressure Humidity
    00:00 +14°C° 0 mm 2 mps 753 mmHg 64%
    01:00 +14°C° 0 mm 2 mps 753 mmHg 65%
    02:00 +13°C° 0 mm 2 mps 753 mmHg 66%
    03:00 +13°C° 0 mm 2 mps 753 mmHg 67%
    04:00 +13°C° 0 mm 2 mps 753 mmHg 68%
    05:00 +12°C° 0 mm 2 mps 753 mmHg 69%
    06:00 +12°C° 0 mm 2 mps 753 mmHg 70%
    07:00 +13°C° 0 mm 2 mps 753 mmHg 66%
    08:00 +14°C° 0 mm 2 mps 753 mmHg 62%
    09:00 +15°C° 0 mm 2 mps 753 mmHg 58%
    10:00 +17°C° 0 mm 3 mps 753 mmHg 53%
    11:00 +18°C° 0 mm 3 mps 753 mmHg 48%
    12:00 +20°C° 0 mm 3 mps 753 mmHg 43%
    13:00 +20°C° 0 mm 3 mps 753 mmHg 42%
    14:00 +21°C° 0 mm 3 mps 753 mmHg 41%
    15:00 +21°C° 0 mm 3 mps 753 mmHg 40%
    16:00 +19°C° 0 mm 2 mps 752 mmHg 43%
    17:00 +18°C° 0 mm 2 mps 752 mmHg 47%
    18:00 +17°C° 0 mm 2 mps 752 mmHg 51%
    19:00 +16°C° 0 mm 2 mps 752 mmHg 51%
    20:00 +16°C° 0 mm 2 mps 752 mmHg 52%
    21:00 +14°C° 0 mm 3 mps 752 mmHg 53%
    22:00 +14°C° 0 mm 3 mps 752 mmHg 53%
    23:00 +14°C° 0 mm 3 mps 752 mmHg 53%

    Tomorrow, 25 October, Friday

    Time Temperature Precipitation Wind Pressure Humidity
    00:00 +13°C° 0 mm 3 mps 752 mmHg 53%
    01:00 +13°C° 0 mm 3 mps 752 mmHg 54%
    02:00 +13°C° 0 mm 2 mps 752 mmHg 55%
    03:00 +13°C° 0 mm 2 mps 752 mmHg 56%
    04:00 +13°C° 0 mm 2 mps 752 mmHg 56%
    05:00 +12°C° 0 mm 2 mps 752 mmHg 57%
    06:00 +12°C° 0 mm 1 mps 752 mmHg 57%
    07:00 +13°C° 0 mm 2 mps 752 mmHg 54%
    08:00 +14°C° 0 mm 2 mps 752 mmHg 52%
    09:00 +14°C° 0 mm 3 mps 752 mmHg 49%
    10:00 +16°C° 0 mm 3 mps 752 mmHg 46%
    11:00 +18°C° 0 mm 4 mps 752 mmHg 42%
    12:00 +19°C° 0 mm 4 mps 752 mmHg 39%
    13:00 +19°C° 0 mm 4 mps 752 mmHg 38%
    14:00 +19°C° 0 mm 4 mps 752 mmHg 38%
    15:00 +20°C° 0 mm 4 mps 752 mmHg 38%
    16:00 +18°C° 0 mm 4 mps 752 mmHg 43%
    17:00 +17°C° 0 mm 3 mps 752 mmHg 48%
    18:00 +14°C° 0 mm 3 mps 752 mmHg 52%
    19:00 +14°C° 0 mm 3 mps 752 mmHg 55%
    20:00 +14°C° 0 mm 3 mps 752 mmHg 58%
    21:00 +13°C° 0 mm 3 mps 752 mmHg 61%
    22:00 +13°C° 0 mm 3 mps 752 mmHg 60%
    23:00 +12°C° 0 mm 3 mps 752 mmHg 60%

    Day after tomorrow, 26 October, Saturday

    Time Temperature Precipitation Wind Pressure Humidity
    00:00 +12°C° 0 mm 3 mps 752 mmHg 60%
    01:00 +12°C° 0 mm 3 mps 753 mmHg 60%
    02:00 +12°C° 0 mm 3 mps 753 mmHg 59%
    03:00 +11°C° 0 mm 3 mps 753 mmHg 59%
    04:00 +11°C° 0 mm 3 mps 753 mmHg 60%
    05:00 +11°C° 0 mm 3 mps 753 mmHg 61%
    06:00 +10°C° 0 mm 3 mps 753 mmHg 62%
    07:00 +11°C° 0 mm 3 mps 753 mmHg 58%
    08:00 +12°C° 0 mm 4 mps 753 mmHg 54%
    09:00 +13°C° 0 mm 4 mps 753 mmHg 49%
    10:00 +15°C° 0 mm 4 mps 754 mmHg 45%
    11:00 +17°C° 0 mm 4 mps 754 mmHg 40%
    12:00 +18°C° 0 mm 4 mps 754 mmHg 35%
    13:00 +18°C° 0 mm 4 mps 753 mmHg 35%
    14:00 +18°C° 0 mm 4 mps 753 mmHg 35%
    15:00 +19°C° 0 mm 4 mps 753 mmHg 35%
    16:00 +17°C° 0 mm 3 mps 753 mmHg 39%
    17:00 +16°C° 0 mm 2 mps 753 mmHg 44%
    18:00 +14°C° 0 mm 2 mps 753 mmHg 48%
    19:00 +14°C° 0 mm 2 mps 753 mmHg 49%
    20:00 +13°C° 0 mm 2 mps 753 mmHg 51%
    21:00 +13°C° 0 mm 2 mps 753 mmHg 53%
    22:00 +12°C° 0 mm 2 mps 753 mmHg 54%
    23:00 +12°C° 0 mm 2 mps 753 mmHg 56%

    , 27 October, Sunday

    Time Temperature Precipitation Wind Pressure Humidity
    00:00 +12°C° 0 mm 2 mps 752 mmHg 58%
    01:00 +11°C° 0 mm 1 mps 752 mmHg 59%
    02:00 +11°C° 0 mm 1 mps 752 mmHg 60%
    03:00 +11°C° 0 mm 1 mps 752 mmHg 62%
    04:00 +11°C° 0 mm 1 mps 752 mmHg 64%
    05:00 +9°C° 0 mm 2 mps 752 mmHg 66%
    06:00 +9°C° 0 mm 2 mps 752 mmHg 69%
    07:00 +10°C° 0 mm 2 mps 752 mmHg 66%
    08:00 +12°C° 0 mm 2 mps 752 mmHg 64%
    09:00 +13°C° 0 mm 2 mps 752 mmHg 62%
    10:00 +14°C° 0 mm 3 mps 752 mmHg 57%
    11:00 +17°C° 0 mm 3 mps 752 mmHg 52%
    12:00 +18°C° 0 mm 4 mps 752 mmHg 48%
    13:00 +18°C° 0 mm 4 mps 752 mmHg 47%
    14:00 +19°C° 0 mm 4 mps 751 mmHg 46%
    15:00 +19°C° 0 mm 4 mps 751 mmHg 45%
    16:00 +18°C° 0 mm 4 mps 751 mmHg 48%
    17:00 +17°C° 0 mm 3 mps 751 mmHg 51%
    18:00 +14°C° 0 mm 3 mps 750 mmHg 54%
    19:00 +14°C° 0 mm 3 mps 750 mmHg 55%
    20:00 +13°C° 0 mm 3 mps 750 mmHg 57%
    21:00 +13°C° 0 mm 3 mps 750 mmHg 59%
    22:00 +12°C° 0 mm 3 mps 750 mmHg 60%
    23:00 +12°C° 0 mm 3 mps 750 mmHg 62%

    27 October, Sunday

    Time Temperature Precipitation Wind Pressure Humidity
    00:00 +12°C° 0 mm 2 mps 752 mmHg 58%
    01:00 +11°C° 0 mm 1 mps 752 mmHg 59%
    02:00 +11°C° 0 mm 1 mps 752 mmHg 60%
    03:00 +11°C° 0 mm 1 mps 752 mmHg 62%
    04:00 +11°C° 0 mm 1 mps 752 mmHg 64%
    05:00 +9°C° 0 mm 2 mps 752 mmHg 66%
    06:00 +9°C° 0 mm 2 mps 752 mmHg 69%
    07:00 +10°C° 0 mm 2 mps 752 mmHg 66%
    08:00 +12°C° 0 mm 2 mps 752 mmHg 64%
    09:00 +13°C° 0 mm 2 mps 752 mmHg 62%
    10:00 +14°C° 0 mm 3 mps 752 mmHg 57%
    11:00 +17°C° 0 mm 3 mps 752 mmHg 52%
    12:00 +18°C° 0 mm 4 mps 752 mmHg 48%
    13:00 +18°C° 0 mm 4 mps 752 mmHg 47%
    14:00 +19°C° 0 mm 4 mps 751 mmHg 46%
    15:00 +19°C° 0 mm 4 mps 751 mmHg 45%
    16:00 +18°C° 0 mm 4 mps 751 mmHg 48%
    17:00 +17°C° 0 mm 3 mps 751 mmHg 51%
    18:00 +14°C° 0 mm 3 mps 750 mmHg 54%
    19:00 +14°C° 0 mm 3 mps 750 mmHg 55%
    20:00 +13°C° 0 mm 3 mps 750 mmHg 57%
    21:00 +13°C° 0 mm 3 mps 750 mmHg 59%
    22:00 +12°C° 0 mm 3 mps 750 mmHg 60%
    23:00 +12°C° 0 mm 3 mps 750 mmHg 62%

    28 October, Monday

    Time Temperature Precipitation Wind Pressure Humidity
    00:00 +12°C° 0 mm 3 mps 750 mmHg 63%
    01:00 +12°C° 0 mm 3 mps 750 mmHg 65%
    02:00 +11°C° 0 mm 3 mps 750 mmHg 66%
    03:00 +11°C° 0 mm 3 mps 749 mmHg 67%
    04:00 +11°C° 0 mm 3 mps 749 mmHg 68%
    05:00 +11°C° 0 mm 3 mps 749 mmHg 69%
    06:00 +10°C° 0 mm 3 mps 749 mmHg 70%
    07:00 +11°C° 0 mm 4 mps 749 mmHg 67%
    08:00 +12°C° 0 mm 4 mps 749 mmHg 64%
    09:00 +13°C° 0 mm 5 mps 749 mmHg 61%
    10:00 +15°C° 0 mm 5 mps 749 mmHg 55%
    11:00 +16°C° 0 mm 5 mps 749 mmHg 49%
    12:00 +19°C° 0 mm 5 mps 749 mmHg 44%
    13:00 +19°C° 0 mm 6 mps 748 mmHg 42%
    14:00 +20°C° 0 mm 6 mps 748 mmHg 41%
    15:00 +20°C° 0 mm 6 mps 747 mmHg 39%
    16:00 +17°C° 0 mm 5 mps 747 mmHg 45%
    17:00 +16°C° 0 mm 5 mps 747 mmHg 50%
    18:00 +14°C° 0 mm 4 mps 747 mmHg 56%
    19:00 +14°C° 0 mm 4 mps 747 mmHg 59%
    20:00 +13°C° 0 mm 4 mps 747 mmHg 63%
    21:00 +13°C° 0 mm 4 mps 747 mmHg 66%
    22:00 +12°C° 0 mm 4 mps 747 mmHg 69%
    23:00 +12°C° 0 mm 4 mps 747 mmHg 73%

    29 October, Tuesday

    Time Temperature Precipitation Wind Pressure Humidity
    00:00 +11°C° 0 mm 3 mps 747 mmHg 76%
    01:00 +11°C° 0 mm 3 mps 747 mmHg 76%
    02:00 +11°C° 0 mm 3 mps 747 mmHg 76%
    03:00 +11°C° 0 mm 3 mps 747 mmHg 76%
    04:00 +12°C° 0 mm 2 mps 747 mmHg 76%
    05:00 +12°C° 0 mm 2 mps 747 mmHg 76%
    06:00 +10°C° 0 mm 2 mps 747 mmHg 75%
    07:00 +12°C° 0 mm 1 mps 747 mmHg 72%
    08:00 +13°C° 0 mm 1 mps 748 mmHg 69%
    09:00 +14°C° 0 mm 1 mps 748 mmHg 66%
    10:00 +15°C° 0 mm 1 mps 748 mmHg 63%
    11:00 +16°C° 0 mm 2 mps 748 mmHg 60%
    12:00 +17°C° 0 mm 2 mps 748 mmHg 57%
    13:00 +17°C° 0 mm 2 mps 748 mmHg 57%
    14:00 +17°C° 0 mm 2 mps 748 mmHg 56%
    15:00 +17°C° 0 mm 3 mps 748 mmHg 56%
    16:00 +16°C° 0 mm 3 mps 748 mmHg 62%
    17:00 +14°C° 0 mm 3 mps 748 mmHg 68%
    18:00 +12°C° 0 mm 3 mps 748 mmHg 74%
    19:00 +12°C° 0 mm 3 mps 749 mmHg 76%
    20:00 +12°C° 0 mm 3 mps 749 mmHg 77%
    21:00 +11°C° 0 mm 4 mps 749 mmHg 79%
    22:00 +11°C° 0 mm 4 mps 749 mmHg 79%
    23:00 +11°C° 0 mm 4 mps 749 mmHg 79%
    Show more